Weather History for Sylvania, GA

Change the Weather History Date:

Tuesday, July 16, 2013

  Actual Average (KSAV) Record (KSAV)
Temperature  
Mean Temperature 83 °F 83 °F  
Max Temperature 91 °F 93 °F 101 °F (1993)
Min Temperature 75 °F 73 °F 62 °F (1967)
Degree Days  
Heating Degree Days 0 0  
Month to date heating degree days 0  
Since 1 June heating degree days 0  
Since 1 July heating degree days 0  
Cooling Degree Days 18 18  
Month to date cooling degree days 280  
Year to date cooling degree days 1129  
Since 1 June cooling degree days 726  
Growing Degree Days 33 (Base 50)    
Moisture  
Dew Point 74 °F    
Average Humidity 82    
Maximum Humidity 91    
Minimum Humidity 51    
Precipitation  
Precipitation 0.00 in 0.17 in 1.87 in (1991)
Month to date precipitation 2.70  
Year to date precipitation 24.91  
Sea Level Pressure  
Sea Level Pressure 30.26 in    
Wind  
Wind Speed 2 mph (ENE)    
Max Wind Speed 9 mph    
Max Gust Speed -    
Visibility 6 miles    
Events Fog , Rain , Thunderstorm    
T = Trace of Precipitation, MM = Missing Value Source: NWS Daily Summary

Daily Weather History Graph

Daily Weather History Graph

Search for Another Location

Airport:

Trip Planner

Search our weather history database for the weather conditions in past years. The results will help you decide how hot, cold, wet, or windy it might be!

Date:

Astronomy

Jul. 16, 2013 Rise Set
Actual Time 6:30 AM EDT 8:34 PM EDT
Civil Twilight 6:02 AM EDT 9:02 PM EDT
Nautical Twilight 5:28 AM EDT 9:36 PM EDT
Astronomical Twilight 4:52 AM EDT 10:12 PM EDT
Moon 2:22 PM EDT (7/16) 12:49 AM EDT (7/16)
Length of Visible Light 14h 59m
Length of Day
14h 04m
First Quarter, 56% of the Moon is Illuminated
Jul 16
First Quarter
Jul 22
Full
Jul 29
Last Quarter
Aug 6
New
Aug 14
First Quarter

Hourly Weather History & Observations

Time (EDT) Temp. Heat Index Dew Point Humidity Pressure Visibility Wind Dir Wind Speed Gust Speed Precip Events Conditions
12:15 AM 76.6 °F - 73.4 °F 90% 30.26 in 7.0 mi Calm Calm - N/A   Clear
12:35 AM 76.5 °F - 73.4 °F 90% 30.26 in 7.0 mi Calm Calm - N/A   Clear
12:55 AM 76.3 °F - 73.0 °F 90% 30.26 in 7.0 mi Calm Calm - N/A   Clear
1:15 AM 75.9 °F - 72.7 °F 90% 30.26 in 5.0 mi Calm Calm - N/A   Clear
1:35 AM 76.1 °F - 72.9 °F 90% 30.26 in 7.0 mi Calm Calm - N/A   Clear
1:55 AM 76.1 °F - 73.0 °F 90% 30.26 in 7.0 mi Calm Calm - N/A   Clear
2:15 AM 76.1 °F - 72.9 °F 90% 30.25 in 7.0 mi Calm Calm - N/A   Clear
2:35 AM 75.9 °F - 72.9 °F 90% 30.25 in 5.0 mi Calm Calm - N/A   Clear
2:55 AM 75.6 °F - 72.7 °F 91% 30.25 in 5.0 mi Calm Calm - N/A   Clear
3:15 AM 75.6 °F - 72.7 °F 91% 30.25 in 5.0 mi Calm Calm - N/A   Clear
3:35 AM 75.6 °F - 72.7 °F 91% 30.25 in 5.0 mi Calm Calm - N/A   Clear
3:55 AM 75.6 °F - 72.7 °F 91% 30.24 in 5.0 mi Calm Calm - N/A   Scattered Clouds
4:15 AM 75.6 °F - 72.7 °F 91% 30.25 in 3.0 mi NE 3.5 mph - N/A   Overcast
4:35 AM 75.7 °F - 72.9 °F 91% 30.25 in 3.0 mi ENE 3.5 mph - N/A   Overcast
4:55 AM 75.6 °F - 72.7 °F 91% 30.25 in 1.5 mi Calm Calm - N/A   Overcast
5:15 AM 75.6 °F - 72.7 °F 91% 30.24 in 1.0 mi ENE 4.6 mph - N/A   Overcast
5:35 AM 75.6 °F - 72.7 °F 91% 30.24 in 0.8 mi ENE 3.5 mph - N/A   Overcast
5:55 AM 75.4 °F - 72.7 °F 91% 30.25 in 0.8 mi ENE 3.5 mph - N/A   Overcast
6:15 AM 75.6 °F - 72.9 °F 91% 30.26 in 0.8 mi Calm Calm - N/A   Overcast
6:35 AM 75.6 °F - 72.9 °F 91% 30.26 in 1.0 mi NE 4.6 mph - N/A   Overcast
6:55 AM 75.6 °F - 72.9 °F 91% 30.26 in 0.2 mi Calm Calm - N/A Fog Fog
7:15 AM 75.6 °F - 72.9 °F 91% 30.27 in 0.2 mi Calm Calm - N/A Fog Fog
7:35 AM 75.7 °F - 73.0 °F 91% 30.27 in 0.2 mi Calm Calm - N/A Fog Fog
7:55 AM 75.9 °F - 73.2 °F 91% 30.28 in 0.5 mi ENE 4.6 mph - N/A Fog Fog
8:15 AM 76.1 °F - 73.4 °F 91% 30.29 in 0.5 mi ENE 4.6 mph - N/A Fog Fog
8:35 AM 76.6 °F - 73.9 °F 91% 30.29 in 0.8 mi Calm Calm - N/A   Overcast
8:55 AM 76.8 °F - 74.1 °F 91% 30.30 in 1.2 mi East 3.5 mph - N/A   Overcast
9:15 AM 77.5 °F - 74.8 °F 91% 30.30 in 4.0 mi East 4.6 mph - N/A   Overcast
9:35 AM 78.1 °F - 75.2 °F 91% 30.30 in 5.0 mi ENE 4.6 mph - N/A   Overcast
9:55 AM 79.0 °F - 75.6 °F 89% 30.30 in 7.0 mi ENE 5.8 mph - N/A   Overcast
10:15 AM 79.9 °F - 75.9 °F 88% 30.30 in 7.0 mi ESE 6.9 mph - N/A   Overcast
10:35 AM 81.1 °F 87.0 °F 74.8 °F 81% 30.30 in 10.0 mi East 6.9 mph - N/A   Mostly Cloudy
10:55 AM 83.3 °F 90.5 °F 74.5 °F 75% 30.30 in 10.0 mi East 5.8 mph - N/A   Scattered Clouds
11:15 AM 83.5 °F 90.6 °F 74.3 °F 74% 30.30 in 10.0 mi ENE 6.9 mph - N/A   Scattered Clouds
11:55 AM 86.0 °F 93.4 °F 73.6 °F 66% 30.29 in 10.0 mi East 5.8 mph - N/A   Clear
12:15 PM 86.0 °F 93.8 °F 73.8 °F 67% 30.29 in 10.0 mi East 4.6 mph - N/A   Scattered Clouds
12:35 PM 86.7 °F 94.1 °F 73.2 °F 64% 30.28 in 10.0 mi East 5.8 mph - N/A   Clear
12:55 PM 86.9 °F 93.3 °F 72.1 °F 61% 30.28 in 10.0 mi East 6.9 mph - N/A   Scattered Clouds
1:15 PM 87.8 °F 94.3 °F 71.8 °F 59% 30.27 in 10.0 mi NE 6.9 mph - N/A   Scattered Clouds
1:35 PM 86.9 °F 93.3 °F 72.0 °F 61% 30.27 in 10.0 mi NE 3.5 mph - N/A   Scattered Clouds
1:55 PM 88.9 °F 95.1 °F 71.6 °F 56% 30.27 in 1.0 mi NE 3.5 mph - N/A   Haze
2:15 PM 88.9 °F 96.6 °F 72.7 °F 59% 30.26 in 2.0 mi ENE 5.8 mph - N/A   Haze
2:35 PM 89.4 °F 96.8 °F 72.5 °F 57% 30.25 in 2.5 mi ENE 3.5 mph - N/A   Haze
2:55 PM 89.6 °F 97.2 °F 72.3 °F 57% 30.25 in 4.0 mi ENE 8.1 mph - N/A   Haze
3:15 PM 90.3 °F 97.2 °F 71.8 °F 54% 30.24 in 1.5 mi ENE 6.9 mph - N/A   Haze
3:35 PM 90.7 °F 96.9 °F 70.9 °F 52% 30.24 in 1.5 mi ENE 3.5 mph - N/A   Haze
4:55 PM 90.1 °F 97.3 °F 72.0 °F 55% 30.23 in 10.0 mi NE 5.8 mph - N/A Thunderstorm Thunderstorm
5:15 PM 91.2 °F 97.5 °F 70.7 °F 51% 30.23 in 10.0 mi ENE 3.5 mph - N/A Thunderstorm Thunderstorm
5:35 PM 87.1 °F 94.5 °F 73.2 °F 63% 30.24 in 10.0 mi South 9.2 mph - N/A Thunderstorm Thunderstorm
5:55 PM 79.9 °F - 74.5 °F 83% 30.23 in 4.0 mi WSW 5.8 mph - N/A Rain , Thunderstorm Thunderstorms and Rain
6:15 PM 79.3 °F - 74.7 °F 86% 30.23 in 10.0 mi WSW 4.6 mph - N/A   Mostly Cloudy
6:35 PM 79.7 °F - 74.1 °F 83% 30.24 in 10.0 mi Calm Calm - N/A Thunderstorm Mostly Cloudy
6:55 PM 80.8 °F 86.3 °F 74.7 °F 82% 30.23 in 10.0 mi Calm Calm - N/A   Scattered Clouds
7:15 PM 81.5 °F 87.8 °F 75.0 °F 81% 30.23 in 10.0 mi Calm Calm - N/A Thunderstorm Thunderstorm
7:35 PM 81.7 °F 88.5 °F 75.6 °F 82% 30.23 in 10.0 mi Calm Calm - N/A   Clear
7:55 PM 81.5 °F 88.3 °F 75.9 °F 83% 30.23 in 10.0 mi Calm Calm - N/A   Clear
8:15 PM 80.8 °F 87.1 °F 76.1 °F 86% 30.23 in 10.0 mi Calm Calm - N/A   Clear
8:35 PM 80.1 °F 85.4 °F 75.7 °F 87% 30.23 in 10.0 mi Calm Calm - N/A   Clear
8:55 PM 80.4 °F 86.1 °F 75.7 °F 86% 30.24 in 10.0 mi Calm Calm - N/A   Clear
9:15 PM 79.5 °F - 75.7 °F 88% 30.24 in 7.0 mi Calm Calm - N/A   Clear
9:35 PM 79.0 °F - 75.4 °F 89% 30.24 in 7.0 mi Calm Calm - N/A   Clear
9:55 PM 79.7 °F - 76.1 °F 89% 30.25 in 7.0 mi Calm Calm - N/A   Clear
10:15 PM 78.6 °F - 75.2 °F 89% 30.26 in 7.0 mi Calm Calm - N/A   Scattered Clouds
10:35 PM 78.3 °F - 75.2 °F 90% 30.26 in 5.0 mi Calm Calm - N/A   Overcast
10:55 PM 78.1 °F - 75.2 °F 91% 30.26 in 5.0 mi Calm Calm - N/A   Overcast
11:15 PM 78.1 °F - 75.2 °F 91% 30.26 in 5.0 mi Calm Calm - N/A   Scattered Clouds
11:35 PM 77.9 °F - 74.7 °F 90% 30.26 in 7.0 mi Calm Calm - N/A   Scattered Clouds
11:55 PM 77.5 °F - 74.5 °F 90% 30.26 in 5.0 mi Calm Calm - N/A   Clear